TimeMST,TemperatureF,Dew PointF,Humidity,Sea Level PressureIn,VisibilityMPH,Wind Direction,Wind SpeedMPH,Gust SpeedMPH,PrecipitationIn,Events,Conditions,WindDirDegrees,DateUTC
12:53 AM,28.0,21.0,75,30.22,10.0,South,9.2,-,N/A,,Clear,190,2012-11-27 07:53:00
1:53 AM,27.0,19.9,75,30.21,10.0,South,6.9,-,N/A,,Clear,180,2012-11-27 08:53:00
2:53 AM,19.9,16.0,85,30.22,10.0,North,-9999.0,-,N/A,,Clear,0,2012-11-27 09:53:00
3:53 AM,18.0,15.1,88,30.21,10.0,NNW,3.5,-,N/A,,Clear,340,2012-11-27 10:53:00
4:53 AM,15.8,12.2,86,30.10,9.0,NNW,4.6,-,N/A,,Clear,330,2012-11-27 11:53:00
5:53 AM,17.1,14.0,88,30.23,9.0,NNW,8.1,-,N/A,,Clear,330,2012-11-27 12:53:00
6:53 AM,17.1,12.9,84,30.25,9.0,NNW,4.6,-,N/A,,Clear,330,2012-11-27 13:53:00
7:53 AM,19.9,16.0,85,30.25,7.0,Calm,Calm,-,N/A,,Clear,0,2012-11-27 14:53:00
8:53 AM,26.1,21.0,81,30.24,8.0,Calm,Calm,-,N/A,,Clear,0,2012-11-27 15:53:00
9:53 AM,30.9,24.1,76,30.24,9.0,ESE,4.6,-,N/A,,Clear,120,2012-11-27 16:53:00
10:53 AM,39.9,26.1,58,30.19,10.0,Calm,Calm,-,N/A,,Clear,0,2012-11-27 17:53:00
11:53 AM,46.9,21.9,37,30.15,10.0,WNW,5.8,-,N/A,,Clear,300,2012-11-27 18:53:00
12:53 PM,50.0,21.9,33,30.14,10.0,WNW,4.6,-,N/A,,Clear,300,2012-11-27 19:53:00
1:53 PM,53.1,19.9,27,30.12,10.0,North,4.6,-,N/A,,Clear,350,2012-11-27 20:53:00
2:53 PM,51.1,18.0,27,30.15,10.0,NNE,11.5,-,N/A,,Clear,30,2012-11-27 21:53:00
3:53 PM,45.0,21.0,39,30.21,10.0,NE,8.1,-,N/A,,Clear,50,2012-11-27 22:53:00
4:53 PM,34.0,19.0,54,30.27,10.0,ENE,3.5,-,N/A,,Clear,60,2012-11-27 23:53:00
5:53 PM,28.9,18.0,64,30.30,10.0,Calm,Calm,-,N/A,,Clear,0,2012-11-28 00:53:00
6:53 PM,26.1,17.1,69,30.33,10.0,Calm,Calm,-,N/A,,Clear,0,2012-11-28 01:53:00
7:53 PM,25.0,18.0,75,30.34,10.0,Calm,Calm,-,N/A,,Clear,0,2012-11-28 02:53:00
8:53 PM,24.1,17.1,75,30.33,10.0,ESE,4.6,-,N/A,,Clear,110,2012-11-28 03:53:00
9:53 PM,25.0,17.1,72,30.31,10.0,ESE,3.5,-,N/A,,Clear,120,2012-11-28 04:53:00
10:53 PM,23.0,17.1,78,30.28,10.0,Calm,Calm,-,N/A,,Clear,0,2012-11-28 05:53:00
11:53 PM,19.9,15.1,81,30.27,10.0,Calm,Calm,-,N/A,,Clear,0,2012-11-28 06:53:00